Content
SEND FEEDBACK

Australia Flag

TABBIMOBLE, NEW SOUTH WALES


Home > Oceania > Australia > New South Wales
Elevation: 18 meters     Latitude: 29 12S     Longitude: 153 16E

WEATHER
 
SELECT A DAY
Number of Records: 210,778;   Date Range: 10/20/03 - 3/22/16
 
SHARE

PRINT THIS DATA

[ ← Previous Day ]
WEATHER ALMANAC - 1 FEBRUARY, 2013
[ Next Day → ]
[ °F ]   °C
Weather ElementAverageHighLow
Temperature25.3 °C29 °C (1:00 pm)22 °C (2:00 am)
Dewpoint20.6 °C22 °C (1:00 pm)19 °C (9:00 am)
Humidity74.8 %94 % (2:30 am)56 % (3:00 pm)
Barometer1007.5 hPa1011.2 hPa (12:00 am)1003 hPa (5:30 pm)
Wind Speed19.6 km/h33.3 km/h (5:30 pm)
Weather ElementAverage
Visibility9.8 km
Wind DirectionSSW (195.5 °)

Weather ElementTotal
Precipitation---
Cooling Degree Days7.2 (Base 18.3)
Growing Degree Days15.5 (Base 10)
Averaged from 54 records on 1 February, 2013
WEATHER CONDITIONS BREAKOUT
WIND DIRECTION BREAKOUT
WEATHER BY HOUR - 1 FEBRUARY, 2013
[ °F ]   °C
Local TimeTemperatureDewpointHumidityBarometerVisibilityWind DirectionWind SpeedGust SpeedPrecipitationEventsConditions
12:00 AM24 °C21 °C83 %1011.2 hPa10 kmNE (50°)16.7 km/hOvercast
12:30 AM24 °C20 °C78 %1010.2 hPa10 kmNE (40°)16.7 km/hOvercast
1:00 AM24 °C21 °C83 %1010.2 hPa10 kmNNW (330°)9.3 km/hOvercast
1:34 AM23 °C21 °C88 %1010.2 hPa5 kmWNW (290°)7.4 km/hOvercast
2:00 AM22 °C20 °C88 %1010.2 hPa10 kmWNW (290°)9.3 km/hOvercast
2:30 AM22 °C21 °C94 %1010.2 hPa10 kmWNW (300°)11.1 km/hOvercast
3:00 AM22 °C21 °C94 %1009.1 hPa10 kmWest (280°)9.3 km/hOvercast
3:00 AM22.2 °C21.1 °C90 %1009.8 hPaWest (280°)9.3 km/h
3:30 AM22 °C21 °C94 %1009.1 hPa10 kmWNW (290°)9.3 km/hOvercast
4:00 AM22 °C21 °C94 %1009.1 hPa10 kmWNW (290°)13 km/hOvercast
4:30 AM22 °C20 °C88 %1009.1 hPa10 kmWNW (290°)9.3 km/hOvercast
5:00 AM22 °C20 °C88 %1009.1 hPa10 kmWNW (300°)7.4 km/hOvercast
5:30 AM22 °C20 °C88 %1009.1 hPa10 kmWNW (300°)5.6 km/hScattered Clouds
6:00 AM22 °C20 °C88 %1009.1 hPa10 kmCalmMostly Cloudy
6:00 AM22.2 °C20.6 °C85 %1009.8 hPaCalm
6:30 AM23 °C20 °C83 %1009.1 hPa10 kmNW (310°)5.6 km/hMostly Cloudy
7:00 AM24 °C21 °C83 %1010.2 hPa10 kmNW (320°)11.1 km/hScattered Clouds
7:30 AM25 °C20 °C74 %1010.2 hPa10 kmNW (320°)11.1 km/hOvercast
8:00 AM25 °C20 °C74 %1010.2 hPa10 kmNorth (350°)11.1 km/hOvercast
8:30 AM26 °C20 °C69 %1009.1 hPa10 kmNorth (350°)14.8 km/hOvercast
9:00 AM26 °C19 °C65 %1009.1 hPa10 kmNorth (360°)16.7 km/hOvercast
9:00 AM26.1 °C19.4 °C58 %1009.8 hPaNorth16.7 km/hOvercast
9:30 AM26 °C20 °C69 %1009.1 hPa10 kmNorth (10°)14.8 km/hOvercast
10:00 AM27 °C21 °C70 %1009.1 hPa10 kmNorth (10°)16.7 km/hOvercast
10:30 AM27 °C20 °C65 %1009.1 hPa10 kmNorth (10°)20.4 km/hOvercast
11:00 AM27 °C20 °C65 %1009.1 hPa10 kmNorth (360°)22.2 km/hMostly Cloudy
11:30 AM27 °C20 °C65 %1008.1 hPa10 kmNorth (10°)22.2 km/hScattered Clouds
12:00 PM27 °C21 °C70 %1008.1 hPa10 kmNorth (10°)25.9 km/h
12:00 PM27.2 °C21.1 °C61 %1008.5 hPaNorth (10°)25.9 km/h
12:30 PM28 °C20 °C62 %1007.1 hPa10 kmNorth (10°)27.8 km/hScattered Clouds
1:00 PM29 °C22 °C66 %1007.1 hPa10 kmNorth (10°)25.9 km/h
1:30 PM28 °C22 °C70 %1006.1 hPa10 kmNNE (20°)25.9 km/h
2:00 PM28 °C21 °C66 %1006.1 hPa10 kmNNE (20°)29.6 km/h
2:30 PM28 °C21 °C66 %1005.1 hPa10 kmNNE (20°)29.6 km/h
3:00 PM28 °C20 °C62 %1005.1 hPa10 kmNorth (10°)29.6 km/h
3:00 PM27.8 °C20.6 °C56 %1005.4 hPaNorth (10°)29.6 km/h
3:30 PM28 °C21 °C66 %1004.1 hPa10 kmNorth (10°)29.6 km/h
4:00 PM28 °C20 °C62 %1004.1 hPa10 kmNorth (10°)29.6 km/h
4:30 PM27 °C20 °C65 %1004.1 hPa10 kmNorth (10°)31.5 km/h
5:00 PM27 °C20 °C65 %1004.1 hPa10 kmNorth (360°)31.5 km/hScattered Clouds
5:30 PM26 °C20 °C69 %1003 hPa10 kmNorth (10°)33.3 km/hScattered Clouds
6:00 PM26 °C21 °C74 %1003 hPa10 kmNorth (360°)31.5 km/hScattered Clouds
6:00 PM26.1 °C21.1 °C67 %1003.7 hPaNorth31.5 km/h
6:30 PM26 °C21 °C74 %1004.1 hPa10 kmNorth (360°)31.5 km/h
7:00 PM26 °C21 °C74 %1004.1 hPa10 kmNorth (360°)29.6 km/h
7:30 PM26 °C21 °C74 %1005.1 hPa10 kmNorth (350°)27.8 km/h
8:00 PM26 °C21 °C74 %1005.1 hPa10 kmNorth (350°)25.9 km/h
8:30 PM25 °C20 °C74 %1005.1 hPa10 kmNorth (350°)25.9 km/h
9:00 PM26 °C21 °C74 %1005.1 hPa10 kmNorth (350°)25.9 km/h
9:00 PM25.6 °C20.6 °C67 %1005.1 hPaNorth (350°)25.9 km/h
9:30 PM25 °C21 °C78 %1005.1 hPa10 kmNNW (340°)25.9 km/h
10:00 PM25 °C21 °C78 %1005.1 hPa10 kmNNW (340°)18.5 km/h
10:30 PM25 °C21 °C78 %1005.1 hPa10 kmNW (320°)13 km/hMostly Cloudy
11:01 PM23 °C20 °C83 %1006.1 hPa6 kmWest (270°)25.9 km/hOvercast
Hourly data recorded from YLIS, located 0 kilometers away from Tabbimoble, New South Wales




STORIES FROM OUR PARTNERS